timestamp, 		tick, 	maxbdip, 	maxindex, 	minbdip, 	minindex, 	change,	steepness, 	maxaftdip, 	maxaftidx, 	minaftdip, 	minaftindex, 	rise, 	alert
13042021_19:42:46,	1.738,	1.755,		136,		1.586,		-24875,		-0.96,	0.01,		1000000.00,	-1,		1000000.00,		-1,		0.00,
13042021_19:42:57,	1.742,	1.755,		135,		1.586,		-24876,		-0.72,	-0.22,		1000000.00,	-1,		1000000.00,		-1,		0.00,
13042021_19:43:07,	1.737,	1.755,		134,		1.586,		-24877,		-1.00,	-0.25,		1000000.00,	-1,		1000000.00,		-1,		0.00,
13042021_19:43:17,	1.739,	1.755,		133,		1.586,		-24878,		-0.88,	-0.09,		1000000.00,	-1,		1000000.00,		-1,		0.00,
13042021_19:43:28,	1.739,	1.755,		132,		1.586,		-24879,		-0.88,	0.04,		1000000.00,	-1,		1000000.00,		-1,		0.00,
13042021_19:43:38,	1.739,	1.755,		131,		1.586,		-24880,		-0.88,	0.02,		1000000.00,	-1,		1000000.00,		-1,		0.00,
13042021_19:43:50,	1.739,	1.755,		130,		1.586,		-24881,		-0.88,	-0.06,		1000000.00,	-1,		1000000.00,		-1,		0.00,
13042021_19:44:01,	1.739,	1.755,		129,		1.586,		-24882,		-0.88,	0.00,		1000000.00,	-1,		1000000.00,		-1,		0.00,
13042021_19:44:11,	1.739,	1.755,		128,		1.586,		-24883,		-0.88,	0.00,		1000000.00,	-1,		1000000.00,		-1,		0.00,
13042021_19:44:22,	1.739,	1.755,		127,		1.586,		-24884,		-0.88,	0.00,		1000000.00,	-1,		1000000.00,		-1,		0.00,
13042021_19:44:32,	1.739,	1.755,		126,		1.586,		-24885,		-0.88,	0.00,		1000000.00,	-1,		1000000.00,		-1,		0.00,
13042021_19:44:43,	1.739,	1.755,		125,		1.586,		-24886,		-0.88,	0.00,		1000000.00,	-1,		1000000.00,		-1,		0.00,
13042021_19:44:53,	1.735,	1.755,		124,		1.586,		-24887,		-1.11,	0.11,		1000000.00,	-1,		1000000.00,		-1,		0.00,
13042021_19:45:03,	1.735,	1.755,		123,		1.586,		-24888,		-1.11,	0.23,		1000000.00,	-1,		1000000.00,		-1,		0.00,
13042021_19:45:14,	1.735,	1.755,		122,		1.586,		-24889,		-1.11,	0.23,		1000000.00,	-1,		1000000.00,		-1,		0.00,
13042021_19:45:24,	1.738,	1.755,		121,		1.586,		-24890,		-0.96,	0.04,		1000000.00,	-1,		1000000.00,		-1,		0.00,
13042021_19:45:35,	1.738,	1.755,		120,		1.586,		-24891,		-0.96,	-0.16,		1000000.00,	-1,		1000000.00,		-1,		0.00,
13042021_19:45:46,	1.736,	1.755,		119,		1.586,		-24892,		-1.07,	-0.10,		1000000.00,	-1,		1000000.00,		-1,		0.00,
13042021_19:45:57,	1.736,	1.755,		118,		1.586,		-24893,		-1.07,	0.04,		1000000.00,	-1,		1000000.00,		-1,		0.00,
13042021_19:46:07,	1.736,	1.755,		117,		1.586,		-24894,		-1.07,	0.12,		1000000.00,	-1,		1000000.00,		-1,		0.00,
13042021_19:46:18,	1.736,	1.755,		116,		1.586,		-24895,		-1.07,	0.06,		1000000.00,	-1,		1000000.00,		-1,		0.00,
13042021_19:46:28,	1.736,	1.755,		115,		1.586,		-24896,		-1.07,	0.00,		1000000.00,	-1,		1000000.00,		-1,		0.00,
13042021_19:46:38,	1.736,	1.755,		114,		1.586,		-24897,		-1.07,	0.00,		1000000.00,	-1,		1000000.00,		-1,		0.00,
13042021_19:46:49,	1.736,	1.755,		113,		1.586,		-24898,		-1.07,	0.00,		1000000.00,	-1,		1000000.00,		-1,		0.00,
13042021_19:46:59,	1.737,	1.755,		112,		1.586,		-24899,		-1.00,	-0.04,		1000000.00,	-1,		1000000.00,		-1,		0.00,
13042021_19:47:10,	1.737,	1.755,		111,		1.586,		-24900,		-1.00,	-0.07,		1000000.00,	-1,		1000000.00,		-1,		0.00,
13042021_19:47:20,	1.737,	1.755,		110,		1.586,		-24901,		-1.00,	-0.07,		1000000.00,	-1,		1000000.00,		-1,		0.00,
13042021_19:47:30,	1.737,	1.755,		109,		1.586,		-24902,		-1.00,	-0.04,		1000000.00,	-1,		1000000.00,		-1,		0.00,
13042021_19:47:41,	1.737,	1.755,		108,		1.586,		-24903,		-1.00,	0.00,		1000000.00,	-1,		1000000.00,		-1,		0.00,
13042021_19:47:53,	1.737,	1.755,		107,		1.586,		-24904,		-1.00,	0.00,		1000000.00,	-1,		1000000.00,		-1,		0.00,
13042021_19:48:04,	1.737,	1.755,		106,		1.586,		-24905,		-1.00,	0.00,		1000000.00,	-1,		1000000.00,		-1,		0.00,
13042021_19:48:14,	1.736,	1.755,		105,		1.586,		-24906,		-1.11,	0.05,		1000000.00,	-1,		1000000.00,		-1,		0.00,
13042021_19:48:24,	1.736,	1.755,		104,		1.586,		-24907,		-1.11,	0.11,		1000000.00,	-1,		1000000.00,		-1,		0.00,
13042021_19:48:35,	1.736,	1.755,		103,		1.586,		-24908,		-1.11,	0.11,		1000000.00,	-1,		1000000.00,		-1,		0.00,
13042021_19:48:45,	1.736,	1.755,		102,		1.586,		-24909,		-1.07,	0.04,		1000000.00,	-1,		1000000.00,		-1,		0.00,
13042021_19:48:56,	1.736,	1.755,		101,		1.586,		-24910,		-1.07,	-0.03,		1000000.00,	-1,		1000000.00,		-1,		0.00,
13042021_19:49:06,	1.736,	1.755,		100,		1.586,		-24911,		-1.07,	-0.03,		1000000.00,	-1,		1000000.00,		-1,		0.00,
13042021_19:49:16,	1.733,	1.755,		99,		1.586,		-24912,		-1.26,	0.08,		1000000.00,	-1,		1000000.00,		-1,		0.00,
13042021_19:49:27,	1.733,	1.755,		98,		1.586,		-24913,		-1.26,	0.19,		1000000.00,	-1,		1000000.00,		-1,		0.00,
13042021_19:49:37,	1.733,	1.755,		97,		1.586,		-24914,		-1.26,	0.19,		1000000.00,	-1,		1000000.00,		-1,		0.00,
13042021_19:49:49,	1.733,	1.755,		96,		1.586,		-24915,		-1.26,	0.10,		1000000.00,	-1,		1000000.00,		-1,		0.00,
13042021_19:50:00,	1.733,	1.755,		95,		1.586,		-24916,		-1.26,	0.00,		1000000.00,	-1,		1000000.00,		-1,		0.00,
13042021_19:50:10,	1.733,	1.755,		94,		1.586,		-24917,		-1.23,	-0.02,		1000000.00,	-1,		1000000.00,		-1,		0.00,
13042021_19:50:20,	1.733,	1.755,		93,		1.586,		-24918,		-1.23,	-0.03,		1000000.00,	-1,		1000000.00,		-1,		0.00,
13042021_19:50:31,	1.731,	1.755,		92,		1.586,		-24919,		-1.34,	0.02,		1000000.00,	-1,		1000000.00,		-1,		0.00,
13042021_19:50:41,	1.731,	1.755,		91,		1.586,		-24920,		-1.34,	0.10,		1000000.00,	-1,		1000000.00,		-1,		0.00,
13042021_19:50:52,	1.731,	1.755,		90,		1.586,		-24921,		-1.34,	0.12,		1000000.00,	-1,		1000000.00,		-1,		0.00,
13042021_19:51:02,	1.731,	1.755,		89,		1.586,		-24922,		-1.34,	0.06,		1000000.00,	-1,		1000000.00,		-1,		0.00,
13042021_19:51:12,	1.734,	1.755,		88,		1.586,		-24923,		-1.17,	-0.08,		1000000.00,	-1,		1000000.00,		-1,		0.00,
13042021_19:51:23,	1.734,	1.755,		87,		1.586,		-24924,		-1.17,	-0.17,		1000000.00,	-1,		1000000.00,		-1,		0.00,
13042021_19:51:34,	1.734,	1.755,		86,		1.586,		-24925,		-1.17,	-0.17,		1000000.00,	-1,		1000000.00,		-1,		0.00,
13042021_19:51:45,	1.734,	1.755,		85,		1.586,		-24926,		-1.17,	-0.08,		1000000.00,	-1,		1000000.00,		-1,		0.00,
13042021_19:51:55,	1.735,	1.755,		84,		1.586,		-24927,		-1.15,	-0.01,		1000000.00,	-1,		1000000.00,		-1,		0.00,
13042021_19:52:06,	1.734,	1.755,		83,		1.586,		-24928,		-1.21,	0.01,		1000000.00,	-1,		1000000.00,		-1,		0.00,
13042021_19:52:16,	1.734,	1.755,		82,		1.586,		-24929,		-1.21,	0.03,		1000000.00,	-1,		1000000.00,		-1,		0.00,
13042021_19:52:26,	1.734,	1.755,		81,		1.586,		-24930,		-1.21,	0.05,		1000000.00,	-1,		1000000.00,		-1,		0.00,
13042021_19:52:37,	1.735,	1.755,		80,		1.586,		-24931,		-1.13,	-0.01,		1000000.00,	-1,		1000000.00,		-1,		0.00,
13042021_19:52:47,	1.734,	1.755,		79,		1.586,		-24932,		-1.17,	-0.06,		1000000.00,	-1,		1000000.00,		-1,		0.00,
13042021_19:52:58,	1.734,	1.755,		78,		1.586,		-24933,		-1.17,	-0.04,		1000000.00,	-1,		1000000.00,		-1,		0.00,
13042021_19:53:08,	1.734,	1.755,		77,		1.586,		-24934,		-1.17,	-0.00,		1000000.00,	-1,		1000000.00,		-1,		0.00,
13042021_19:53:19,	1.734,	1.755,		76,		1.586,		-24935,		-1.21,	0.04,		1000000.00,	-1,		1000000.00,		-1,		0.00,
13042021_19:53:30,	1.734,	1.755,		75,		1.586,		-24936,		-1.21,	0.04,		1000000.00,	-1,		1000000.00,		-1,		0.00,
13042021_19:53:41,	1.734,	1.755,		74,		1.586,		-24937,		-1.21,	0.04,		1000000.00,	-1,		1000000.00,		-1,		0.00,
13042021_19:53:52,	1.736,	1.755,		73,		1.586,		-24938,		-1.08,	-0.05,		1000000.00,	-1,		1000000.00,		-1,		0.00,
13042021_19:54:02,	1.736,	1.755,		72,		1.586,		-24939,		-1.08,	-0.13,		1000000.00,	-1,		1000000.00,		-1,		0.00,
13042021_19:54:13,	1.732,	1.755,		71,		1.586,		-24940,		-1.33,	-0.01,		1000000.00,	-1,		1000000.00,		-1,		0.00,
13042021_19:54:23,	1.732,	1.755,		70,		1.586,		-24941,		-1.33,	0.19,		1000000.00,	-1,		1000000.00,		-1,		0.00,
13042021_19:54:34,	1.732,	1.755,		69,		1.586,		-24942,		-1.33,	0.25,		1000000.00,	-1,		1000000.00,		-1,		0.00,
13042021_19:54:44,	1.732,	1.755,		68,		1.586,		-24943,		-1.33,	0.13,		1000000.00,	-1,		1000000.00,		-1,		0.00,
13042021_19:54:55,	1.732,	1.755,		67,		1.586,		-24944,		-1.33,	0.00,		1000000.00,	-1,		1000000.00,		-1,		0.00,
13042021_19:55:05,	1.732,	1.755,		66,		1.586,		-24945,		-1.33,	0.00,		1000000.00,	-1,		1000000.00,		-1,		0.00,
13042021_19:55:15,	1.724,	1.755,		65,		1.586,		-24946,		-1.76,	0.22,		1000000.00,	-1,		1000000.00,		-1,		0.00,
13042021_19:55:26,	1.722,	1.755,		64,		1.586,		-24947,		-1.88,	0.50,		1000000.00,	-1,		1000000.00,		-1,		0.00,
13042021_19:55:37,	1.722,	1.755,		63,		1.586,		-24948,		-1.86,	0.55,		1000000.00,	-1,		1000000.00,		-1,		0.00,
13042021_19:55:49,	1.722,	1.755,		62,		1.586,		-24949,		-1.86,	0.32,		1000000.00,	-1,		1000000.00,		-1,		0.00,
13042021_19:55:59,	1.722,	1.755,		61,		1.586,		-24950,		-1.86,	0.04,		1000000.00,	-1,		1000000.00,		-1,		0.00,
13042021_19:56:10,	1.722,	1.755,		60,		1.586,		-24951,		-1.86,	-0.01,		1000000.00,	-1,		1000000.00,		-1,		0.00,
13042021_19:56:20,	1.721,	1.755,		59,		1.586,		-24952,		-1.94,	0.04,		1000000.00,	-1,		1000000.00,		-1,		0.00,
13042021_19:56:30,	1.721,	1.755,		58,		1.586,		-24953,		-1.94,	0.09,		1000000.00,	-1,		1000000.00,		-1,		0.00,
13042021_19:56:41,	1.718,	1.755,		57,		1.586,		-24954,		-2.07,	0.15,		1000000.00,	-1,		1000000.00,		-1,		0.00,
13042021_19:56:51,	1.718,	1.755,		56,		1.586,		-24955,		-2.07,	0.18,		1000000.00,	-1,		1000000.00,		-1,		0.00,
13042021_19:57:02,	1.718,	1.755,		55,		1.586,		-24956,		-2.07,	0.13,		1000000.00,	-1,		1000000.00,		-1,		0.00,
13042021_19:57:12,	1.719,	1.755,		54,		1.586,		-24957,		-2.06,	0.06,		1000000.00,	-1,		1000000.00,		-1,		0.00,
13042021_19:57:23,	1.719,	1.755,		53,		1.586,		-24958,		-2.06,	-0.02,		1000000.00,	-1,		1000000.00,		-1,		0.00,
13042021_19:57:34,	1.719,	1.755,		52,		1.586,		-24959,		-2.06,	-0.02,		1000000.00,	-1,		1000000.00,		-1,		0.00,
13042021_19:57:45,	1.719,	1.755,		51,		1.586,		-24960,		-2.06,	-0.01,		1000000.00,	-1,		1000000.00,		-1,		0.00,
13042021_19:57:56,	1.719,	1.755,		50,		1.586,		-24961,		-2.05,	-0.00,		1000000.00,	-1,		1000000.00,		-1,		0.00,
13042021_19:58:06,	1.719,	1.755,		49,		1.586,		-24962,		-2.05,	-0.01,		1000000.00,	-1,		1000000.00,		-1,		0.00,
13042021_19:58:17,	1.719,	1.755,		48,		1.586,		-24963,		-2.05,	-0.01,		1000000.00,	-1,		1000000.00,		-1,		0.00,
13042021_19:58:27,	1.719,	1.755,		47,		1.586,		-24964,		-2.05,	-0.00,		1000000.00,	-1,		1000000.00,		-1,		0.00,
13042021_19:58:38,	1.722,	1.755,		46,		1.586,		-24965,		-1.85,	-0.10,		1000000.00,	-1,		1000000.00,		-1,		0.00,
13042021_19:58:48,	1.722,	1.755,		45,		1.586,		-24966,		-1.85,	-0.21,		1000000.00,	-1,		1000000.00,		-1,		0.00,
13042021_19:58:58,	1.722,	1.755,		44,		1.586,		-24967,		-1.85,	-0.21,		1000000.00,	-1,		1000000.00,		-1,		0.00,
13042021_19:59:09,	1.722,	1.755,		43,		1.586,		-24968,		-1.85,	-0.10,		1000000.00,	-1,		1000000.00,		-1,		0.00,
13042021_19:59:19,	1.722,	1.755,		42,		1.586,		-24969,		-1.85,	0.00,		1000000.00,	-1,		1000000.00,		-1,		0.00,
13042021_19:59:30,	1.726,	1.755,		41,		1.586,		-24970,		-1.62,	-0.11,		1000000.00,	-1,		1000000.00,		-1,		0.00,
13042021_19:59:41,	1.726,	1.755,		40,		1.586,		-24971,		-1.65,	-0.21,		1000000.00,	-1,		1000000.00,		-1,		0.00,
13042021_19:59:52,	1.726,	1.755,		39,		1.586,		-24972,		-1.67,	-0.19,		1000000.00,	-1,		1000000.00,		-1,		0.00,
13042021_20:00:03,	1.726,	1.755,		38,		1.586,		-24973,		-1.67,	-0.07,		1000000.00,	-1,		1000000.00,		-1,		0.00,
13042021_20:00:13,	1.723,	1.755,		37,		1.586,		-24974,		-1.83,	0.12,		1000000.00,	-1,		1000000.00,		-1,		0.00,
13042021_20:00:23,	1.724,	1.755,		36,		1.586,		-24975,		-1.74,	0.13,		1000000.00,	-1,		1000000.00,		-1,		0.00,
13042021_20:00:34,	1.724,	1.755,		35,		1.586,		-24976,		-1.74,	0.07,		1000000.00,	-1,		1000000.00,		-1,		0.00,
13042021_20:00:44,	1.724,	1.755,		34,		1.586,		-24977,		-1.74,	-0.01,		1000000.00,	-1,		1000000.00,		-1,		0.00,
13042021_20:00:54,	1.724,	1.755,		33,		1.586,		-24978,		-1.74,	-0.05,		1000000.00,	-1,		1000000.00,		-1,		0.00,
13042021_20:01:05,	1.724,	1.755,		32,		1.586,		-24979,		-1.74,	0.00,		1000000.00,	-1,		1000000.00,		-1,		0.00,
13042021_20:01:15,	1.724,	1.755,		31,		1.586,		-24980,		-1.74,	0.00,		1000000.00,	-1,		1000000.00,		-1,		0.00,
13042021_20:01:26,	1.723,	1.755,		30,		1.586,		-24981,		-1.81,	0.03,		1000000.00,	-1,		1000000.00,		-1,		0.00,
13042021_20:01:37,	1.723,	1.755,		29,		1.586,		-24982,		-1.81,	0.07,		1000000.00,	-1,		1000000.00,		-1,		0.00,
13042021_20:01:49,	1.723,	1.755,		28,		1.586,		-24983,		-1.81,	0.07,		1000000.00,	-1,		1000000.00,		-1,		0.00,
13042021_20:01:59,	1.723,	1.755,		27,		1.586,		-24984,		-1.81,	0.03,		1000000.00,	-1,		1000000.00,		-1,		0.00,
13042021_20:02:10,	1.723,	1.755,		26,		1.586,		-24985,		-1.82,	0.01,		1000000.00,	-1,		1000000.00,		-1,		0.00,
13042021_20:02:20,	1.723,	1.755,		25,		1.586,		-24986,		-1.82,	0.01,		1000000.00,	-1,		1000000.00,		-1,		0.00,
13042021_20:02:30,	1.723,	1.755,		24,		1.586,		-24987,		-1.82,	0.01,		1000000.00,	-1,		1000000.00,		-1,		0.00,
13042021_20:02:41,	1.735,	1.755,		23,		1.586,		-24988,		-1.12,	-0.35,		1000000.00,	-1,		1000000.00,		-1,		0.00,
13042021_20:02:51,	1.735,	1.755,		22,		1.586,		-24989,		-1.12,	-0.71,		1000000.00,	-1,		1000000.00,		-1,		0.00,
13042021_20:03:01,	1.735,	1.755,		21,		1.586,		-24990,		-1.12,	-0.71,		1000000.00,	-1,		1000000.00,		-1,		0.00,
13042021_20:03:13,	1.735,	1.755,		20,		1.586,		-24991,		-1.12,	-0.36,		1000000.00,	-1,		1000000.00,		-1,		0.00,
13042021_20:03:23,	1.735,	1.755,		19,		1.586,		-24992,		-1.12,	0.00,		1000000.00,	-1,		1000000.00,		-1,		0.00,
13042021_20:03:34,	1.735,	1.755,		18,		1.586,		-24993,		-1.12,	0.00,		1000000.00,	-1,		1000000.00,		-1,		0.00,
13042021_20:03:45,	1.727,	1.755,		17,		1.586,		-24994,		-1.58,	0.24,		1000000.00,	-1,		1000000.00,		-1,		0.00,
13042021_20:03:56,	1.727,	1.755,		16,		1.586,		-24995,		-1.58,	0.47,		1000000.00,	-1,		1000000.00,		-1,		0.00,
13042021_20:04:07,	1.727,	1.755,		15,		1.586,		-24996,		-1.58,	0.47,		1000000.00,	-1,		1000000.00,		-1,		0.00,
13042021_20:04:17,	1.727,	1.755,		14,		1.586,		-24997,		-1.58,	0.24,		1000000.00,	-1,		1000000.00,		-1,		0.00,
13042021_20:04:28,	1.727,	1.755,		13,		1.586,		-24998,		-1.58,	0.00,		1000000.00,	-1,		1000000.00,		-1,		0.00,
13042021_20:04:38,	1.727,	1.755,		12,		1.586,		-24999,		-1.58,	0.00,		1000000.00,	-1,		1000000.00,		-1,		0.00,
13042021_20:04:48,	1.727,	1.755,		11,		1.586,		-25000,		-1.58,	0.00,		1000000.00,	-1,		1000000.00,		-1,		0.00,
13042021_20:04:59,	1.727,	1.755,		10,		1.586,		-25001,		-1.58,	0.00,		1000000.00,	-1,		1000000.00,		-1,		0.00,
13042021_20:05:09,	1.727,	1.755,		9,		1.586,		-25002,		-1.57,	-0.01,		1000000.00,	-1,		1000000.00,		-1,		0.00,
13042021_20:05:19,	1.727,	1.755,		8,		1.586,		-25003,		-1.57,	-0.01,		1000000.00,	-1,		1000000.00,		-1,		0.00,
13042021_20:05:30,	1.727,	1.755,		7,		1.586,		-25004,		-1.57,	-0.02,		1000000.00,	-1,		1000000.00,		-1,		0.00,
13042021_20:05:41,	1.723,	1.755,		6,		1.586,		-25005,		-1.81,	0.11,		1000000.00,	-1,		1000000.00,		-1,		0.00,
13042021_20:05:53,	1.724,	1.755,		5,		1.586,		-25006,		-1.77,	0.22,		1000000.00,	-1,		1000000.00,		-1,		0.00,
13042021_20:06:04,	1.724,	1.755,		4,		1.586,		-25007,		-1.77,	0.20,		1000000.00,	-1,		1000000.00,		-1,		0.00,
13042021_20:06:15,	1.738,	1.755,		3,		1.586,		-25008,		-0.95,	-0.33,		1000000.00,	-1,		1000000.00,		-1,		0.00,
13042021_20:06:25,	1.738,	1.755,		2,		1.586,		-25009,		-0.95,	-0.85,		1000000.00,	-1,		1000000.00,		-1,		0.00,
13042021_20:06:35,	1.738,	1.755,		1,		1.586,		-25010,		-0.95,	-0.83,		1000000.00,	-1,		1000000.00,		-1,		0.00,
13042021_20:06:46,	1.738,	1.755,		0,		1.586,		-25011,		-0.95,	-0.41,		1000000.00,	-1,		1000000.00,		-1,		0.00,
13042021_20:06:56,	1.725,	1.755,		9,		1.586,		-25012,		-1.67,	0.37,		1000000.00,	-1,		1000000.00,		-1,		0.00,
13042021_20:07:06,	1.725,	1.754,		8,		1.586,		-25013,		-1.65,	0.74,		1000000.00,	-1,		1000000.00,		-1,		0.00,
13042021_20:07:17,	1.724,	1.754,		7,		1.586,		-25014,		-1.71,	0.78,		1000000.00,	-1,		1000000.00,		-1,		0.00,
13042021_20:07:27,	1.724,	1.754,		6,		1.586,		-25015,		-1.70,	0.45,		1000000.00,	-1,		1000000.00,		-1,		0.00,
13042021_20:07:38,	1.724,	1.753,		5,		1.586,		-25016,		-1.68,	0.08,		1000000.00,	-1,		1000000.00,		-1,		0.00,
13042021_20:07:49,	1.724,	1.753,		4,		1.586,		-25017,		-1.67,	0.04,		1000000.00,	-1,		1000000.00,		-1,		0.00,
13042021_20:08:01,	1.724,	1.753,		3,		1.586,		-25018,		-1.67,	0.00,		1000000.00,	-1,		1000000.00,		-1,		0.00,
13042021_20:08:11,	1.724,	1.753,		2,		1.586,		-25019,		-1.67,	0.00,		1000000.00,	-1,		1000000.00,		-1,		0.00,
13042021_20:08:22,	1.724,	1.753,		1,		1.586,		-25020,		-1.67,	0.00,		1000000.00,	-1,		1000000.00,		-1,		0.00,
13042021_20:08:32,	1.724,	1.753,		0,		1.586,		-25021,		-1.67,	0.00,		1000000.00,	-1,		1000000.00,		-1,		0.00,
13042021_20:08:42,	1.724,	1.753,		0,		1.586,		-25022,		-1.67,	0.00,		1000000.00,	-1,		1000000.00,		-1,		0.00,
13042021_20:08:53,	1.724,	1.753,		0,		1.586,		-25023,		-1.67,	0.00,		1000000.00,	-1,		1000000.00,		-1,		0.00,
13042021_20:09:03,	1.724,	1.753,		2,		1.586,		-25024,		-1.63,	0.00,		1000000.00,	-1,		1000000.00,		-1,		0.00,
13042021_20:09:14,	1.724,	1.752,		1,		1.586,		-25025,		-1.59,	0.00,		1000000.00,	-1,		1000000.00,		-1,		0.00,
13042021_20:09:24,	1.724,	1.751,		0,		1.586,		-25026,		-1.56,	0.00,		1000000.00,	-1,		1000000.00,		-1,		0.00,
13042021_20:09:34,	1.719,	1.751,		0,		1.586,		-25027,		-1.83,	0.16,		1000000.00,	-1,		1000000.00,		-1,		0.00,
13042021_20:09:45,	1.721,	1.750,		0,		1.586,		-25028,		-1.65,	0.24,		1000000.00,	-1,		1000000.00,		-1,		0.00,
13042021_20:09:57,	1.721,	1.749,		0,		1.586,		-25029,		-1.61,	0.16,		1000000.00,	-1,		1000000.00,		-1,		0.00,
13042021_20:10:08,	1.721,	1.749,		108,		1.586,		-25030,		-1.58,	0.01,		1000000.00,	-1,		1000000.00,		-1,		0.00,
13042021_20:10:18,	1.732,	1.748,		107,		1.586,		-25031,		-0.91,	-0.40,		1000000.00,	-1,		1000000.00,		-1,		0.00,
13042021_20:10:28,	1.732,	1.748,		106,		1.586,		-25032,		-0.87,	-0.64,		1000000.00,	-1,		1000000.00,		-1,		0.00,
13042021_20:10:39,	1.732,	1.747,		105,		1.586,		-25033,		-0.84,	-0.64,		1000000.00,	-1,		1000000.00,		-1,		0.00,
13042021_20:10:49,	1.735,	1.746,		104,		1.586,		-25034,		-0.64,	-0.41,		1000000.00,	-1,		1000000.00,		-1,		0.00,
13042021_20:10:59,	1.735,	1.746,		103,		1.586,		-25035,		-0.61,	-0.16,		1000000.00,	-1,		1000000.00,		-1,		0.00,
13042021_20:11:10,	1.735,	1.746,		102,		1.586,		-25036,		-0.63,	-0.15,		1000000.00,	-1,		1000000.00,		-1,		0.00,
13042021_20:11:20,	1.735,	1.746,		101,		1.586,		-25037,		-0.63,	-0.06,		1000000.00,	-1,		1000000.00,		-1,		0.00,
13042021_20:11:31,	1.735,	1.746,		100,		1.586,		-25038,		-0.63,	0.02,		1000000.00,	-1,		1000000.00,		-1,		0.00,
13042021_20:11:41,	1.739,	1.746,		99,		1.586,		-25039,		-0.37,	-0.12,		1000000.00,	-1,		1000000.00,		-1,		0.00,
13042021_20:11:53,	1.739,	1.746,		98,		1.586,		-25040,		-0.40,	-0.24,		1000000.00,	-1,		1000000.00,		-1,		0.00,
13042021_20:12:04,	1.738,	1.746,		97,		1.586,		-25041,		-0.42,	-0.22,		1000000.00,	-1,		1000000.00,		-1,		0.00,
13042021_20:12:14,	1.738,	1.746,		96,		1.586,		-25042,		-0.42,	-0.08,		1000000.00,	-1,		1000000.00,		-1,		0.00,
13042021_20:12:25,	1.744,	1.746,		95,		1.586,		-25043,		-0.11,	-0.12,		1000000.00,	-1,		1000000.00,		-1,		0.00,
13042021_20:12:35,	1.744,	1.746,		94,		1.586,		-25044,		-0.11,	-0.30,		1000000.00,	-1,		1000000.00,		-1,		0.00,
13042021_20:12:46,	1.743,	1.746,		93,		1.586,		-25045,		-0.16,	-0.29,		1000000.00,	-1,		1000000.00,		-1,		0.00,
13042021_20:12:56,	1.743,	1.746,		92,		1.586,		-25046,		-0.16,	-0.11,		1000000.00,	-1,		1000000.00,		-1,		0.00,
13042021_20:13:07,	1.743,	1.746,		91,		1.586,		-25047,		-0.16,	0.05,		1000000.00,	-1,		1000000.00,		-1,		0.00,
13042021_20:13:17,	1.743,	1.746,		90,		1.586,		-25048,		-0.16,	0.02,		1000000.00,	-1,		1000000.00,		-1,		0.00,
13042021_20:13:27,	1.743,	1.746,		89,		1.586,		-25049,		-0.16,	0.00,		1000000.00,	-1,		1000000.00,		-1,		0.00,
13042021_20:13:38,	1.745,	1.746,		88,		1.586,		-25050,		-0.06,	-0.05,		1000000.00,	-1,		1000000.00,		-1,		0.00,
13042021_20:13:48,	1.744,	1.746,		87,		1.586,		-25051,		-0.08,	-0.09,		1000000.00,	-1,		1000000.00,		-1,		0.00,
13042021_20:14:00,	1.744,	1.746,		86,		1.586,		-25052,		-0.08,	-0.08,		1000000.00,	-1,		1000000.00,		-1,		0.00,
13042021_20:14:10,	1.749,	1.746,		719,		1.586,		-25053,		0.17,	-0.17,		1000000.00,	-1,		1000000.00,		-1,		0.00,
13042021_20:14:21,	1.749,	1.747,		718,		1.586,		-25054,		0.14,	-0.28,		1000000.00,	-1,		1000000.00,		-1,		0.00,
13042021_20:14:31,	1.747,	1.747,		717,		1.586,		-25055,		-0.01,	-0.23,		1000000.00,	-1,		1000000.00,		-1,		0.00,
13042021_20:14:41,	1.747,	1.748,		716,		1.586,		-25056,		-0.05,	-0.03,		1000000.00,	-1,		1000000.00,		-1,		0.00,
13042021_20:14:52,	1.748,	1.749,		715,		1.586,		-25057,		-0.06,	0.10,		1000000.00,	-1,		1000000.00,		-1,		0.00,
13042021_20:15:02,	1.748,	1.749,		714,		1.586,		-25058,		-0.09,	0.03,		1000000.00,	-1,		1000000.00,		-1,		0.00,
13042021_20:15:13,	1.748,	1.749,		713,		1.586,		-25059,		-0.09,	-0.02,		1000000.00,	-1,		1000000.00,		-1,		0.00,
13042021_20:15:23,	1.748,	1.749,		712,		1.586,		-25060,		-0.09,	-0.01,		1000000.00,	-1,		1000000.00,		-1,		0.00,
13042021_20:15:33,	1.748,	1.749,		711,		1.586,		-25061,		-0.09,	0.00,		1000000.00,	-1,		1000000.00,		-1,		0.00,
13042021_20:15:44,	1.748,	1.749,		710,		1.586,		-25062,		-0.09,	0.00,		1000000.00,	-1,		1000000.00,		-1,		0.00,
13042021_20:15:56,	1.748,	1.749,		709,		1.586,		-25063,		-0.08,	-0.01,		1000000.00,	-1,		1000000.00,		-1,		0.00,
13042021_20:16:08,	1.748,	1.749,		708,		1.586,		-25064,		-0.08,	-0.01,		1000000.00,	-1,		1000000.00,		-1,		0.00,
13042021_20:16:18,	1.739,	1.749,		707,		1.586,		-25065,		-0.57,	0.23,		1000000.00,	-1,		1000000.00,		-1,		0.00,
13042021_20:16:28,	1.741,	1.749,		706,		1.586,		-25066,		-0.49,	0.44,		1000000.00,	-1,		1000000.00,		-1,		0.00,
13042021_20:16:39,	1.739,	1.749,		705,		1.586,		-25067,		-0.61,	0.47,		1000000.00,	-1,		1000000.00,		-1,		0.00,
13042021_20:16:49,	1.739,	1.749,		704,		1.586,		-25068,		-0.61,	0.28,		1000000.00,	-1,		1000000.00,		-1,		0.00,
13042021_20:16:59,	1.741,	1.749,		703,		1.586,		-25069,		-0.47,	0.01,		1000000.00,	-1,		1000000.00,		-1,		0.00,
13042021_20:17:10,	1.741,	1.749,		702,		1.586,		-25070,		-0.47,	-0.07,		1000000.00,	-1,		1000000.00,		-1,		0.00,
13042021_20:17:20,	1.741,	1.749,		701,		1.586,		-25071,		-0.47,	-0.13,		1000000.00,	-1,		1000000.00,		-1,		0.00,
13042021_20:17:31,	1.748,	1.749,		700,		1.586,		-25072,		-0.09,	-0.26,		1000000.00,	-1,		1000000.00,		-1,		0.00,
13042021_20:17:41,	1.748,	1.749,		699,		1.586,		-25073,		-0.09,	-0.38,		1000000.00,	-1,		1000000.00,		-1,		0.00,
13042021_20:17:52,	1.748,	1.749,		698,		1.586,		-25074,		-0.09,	-0.38,		1000000.00,	-1,		1000000.00,		-1,		0.00,
13042021_20:18:04,	1.750,	1.749,		719,		1.586,		-25075,		0.01,	-0.25,		1000000.00,	-1,		1000000.00,		-1,		0.00,
13042021_20:18:14,	1.750,	1.749,		718,		1.586,		-25076,		0.01,	-0.11,		1000000.00,	-1,		1000000.00,		-1,		0.00,
13042021_20:18:25,	1.750,	1.750,		719,		1.586,		-25077,		0.03,	-0.12,		1000000.00,	-1,		1000000.00,		-1,		0.00,
13042021_20:18:35,	1.750,	1.750,		718,		1.586,		-25078,		0.02,	-0.08,		1000000.00,	-1,		1000000.00,		-1,		0.00,
13042021_20:18:45,	1.755,	1.751,		719,		1.586,		-25079,		0.26,	-0.17,		1000000.00,	-1,		1000000.00,		-1,		0.00,
13042021_20:18:56,	1.755,	1.752,		719,		1.586,		-25080,		0.22,	-0.31,		1000000.00,	-1,		1000000.00,		-1,		0.00,
13042021_20:19:06,	1.755,	1.753,		718,		1.586,		-25081,		0.16,	-0.31,		1000000.00,	-1,		1000000.00,		-1,		0.00,
13042021_20:19:17,	1.755,	1.754,		717,		1.586,		-25082,		0.11,	-0.16,		1000000.00,	-1,		1000000.00,		-1,		0.00,
13042021_20:19:27,	1.755,	1.754,		716,		1.586,		-25083,		0.05,	-0.01,		1000000.00,	-1,		1000000.00,		-1,		0.00,
13042021_20:19:37,	1.755,	1.755,		715,		1.586,		-25084,		0.00,	0.00,		1000000.00,	-1,		1000000.00,		-1,		0.00,
13042021_20:19:48,	1.755,	1.755,		714,		1.586,		-25085,		-0.00,	0.00,		1000000.00,	-1,		1000000.00,		-1,		0.00,
13042021_20:20:00,	1.754,	1.755,		713,		1.586,		-25086,		-0.07,	0.04,		1000000.00,	-1,		1000000.00,		-1,		0.00,
13042021_20:20:10,	1.755,	1.755,		712,		1.586,		-25087,		-0.02,	0.05,		1000000.00,	-1,		1000000.00,		-1,		0.00,